TUA641 UTAA-VTBS

Flight info

Callsign TUA641
Flight time N/A
Altitude 35000
Route KEMOR A125 NINOP A909 LEMOD N644 REGET J145 DI A466 SULOM M890 LKN/N0496F370 R460 CEA L507 IGONI
Aircraft B77W/H-SDE1E2E3FGHIJ2J3J4J5M1RWXY/LB1D1

Departure

Time 2026-05-07 12:50
Airport Ashgabat International Airport (UTAA)

Arrival

Time N/A
Airport Suvarnabhumi Airport (VTBS)
Time Latitude Longitude Altitude Speed Heading
2026-05-07 12:24 37.98260 58.36809 679 ft 0 kts 30°
2026-05-07 12:35 37.98258 58.36808 679 ft 2 kts 30°
2026-05-07 12:35 37.98236 58.36792 696 ft 4 kts 30°
2026-05-07 12:36 37.98218 58.36779 696 ft 4 kts 29°
2026-05-07 12:36 37.98195 58.36762 696 ft 4 kts 39°
2026-05-07 12:36 37.98183 58.36749 696 ft 4 kts 81°
2026-05-07 12:36 37.98182 58.36747 696 ft 4 kts 120°
2026-05-07 12:37 37.98196 58.36717 696 ft 4 kts 120°
2026-05-07 12:37 37.98206 58.36694 696 ft 3 kts 120°
2026-05-07 12:37 37.98220 58.36664 696 ft 4 kts 120°
2026-05-07 12:37 37.98233 58.36635 696 ft 4 kts 120°
2026-05-07 12:38 37.98247 58.36605 696 ft 4 kts 120°
2026-05-07 12:38 37.98260 58.36575 696 ft 4 kts 120°
2026-05-07 12:38 37.98273 58.36546 696 ft 4 kts 120°
2026-05-07 12:38 37.98287 58.36516 696 ft 4 kts 120°
2026-05-07 12:39 37.98300 58.36486 696 ft 4 kts 120°
2026-05-07 12:39 37.98311 58.36463 696 ft 4 kts 120°
2026-05-07 12:39 37.98323 58.36434 696 ft 4 kts 104°
2026-05-07 12:39 37.98326 58.36407 696 ft 4 kts 79°
2026-05-07 12:40 37.98319 58.36388 696 ft 4 kts 37°
2026-05-07 12:40 37.98297 58.36370 696 ft 3 kts 28°
2026-05-07 12:40 37.98276 58.36355 696 ft 4 kts 29°
2026-05-07 12:40 37.98260 58.36344 696 ft 0 kts 30°
2026-05-07 12:44 37.98261 58.36345 696 ft 1 kts 30°
2026-05-07 12:44 37.98273 58.36353 696 ft 2 kts 30°
2026-05-07 12:44 37.98292 58.36367 696 ft 6 kts 30°
2026-05-07 12:44 37.98361 58.36417 698 ft 15 kts 30°
2026-05-07 12:45 37.98456 58.36484 701 ft 15 kts 29°
2026-05-07 12:45 37.98550 58.36550 696 ft 15 kts 29°
2026-05-07 12:45 37.98643 58.36615 701 ft 14 kts 28°
2026-05-07 12:45 37.98703 58.36661 702 ft 9 kts 44°
2026-05-07 12:46 37.98709 58.36738 700 ft 9 kts 104°
2026-05-07 12:46 37.98688 58.36815 698 ft 9 kts 110°
2026-05-07 12:46 37.98661 58.36901 698 ft 13 kts 111°
2026-05-07 12:46 37.98618 58.37026 697 ft 18 kts 116°
2026-05-07 12:47 37.98550 58.37186 695 ft 21 kts 119°
2026-05-07 12:47 37.98477 58.37349 700 ft 21 kts 120°
2026-05-07 12:47 37.98428 58.37457 696 ft 21 kts 120°
2026-05-07 12:47 37.98331 58.37676 697 ft 21 kts 118°
2026-05-07 12:48 37.98283 58.37786 697 ft 21 kts 118°
2026-05-07 12:48 37.98244 58.37888 698 ft 10 kts 106°
2026-05-07 12:48 37.98250 58.37977 701 ft 10 kts 64°
2026-05-07 12:48 37.98309 58.38040 697 ft 13 kts 27°
2026-05-07 12:49 37.98370 58.38031 693 ft 8 kts 312°
2026-05-07 12:49 37.98396 58.37976 692 ft 0 kts 299°
2026-05-07 12:49 37.98401 58.37965 694 ft 9 kts 299°
2026-05-07 12:49 37.98520 58.37696 691 ft 73 kts 299°
2026-05-07 12:50 37.98893 58.36856 691 ft 146 kts 299°
2026-05-07 12:50 37.99481 58.35543 957 ft 177 kts 301°
2026-05-07 12:50 38.00086 58.34209 1820 ft 178 kts 300°
2026-05-07 12:50 38.00696 58.32814 2474 ft 183 kts 301°
2026-05-07 12:51 38.01337 58.31338 2760 ft 194 kts 300°
2026-05-07 12:51 38.02005 58.29817 3029 ft 209 kts 302°
2026-05-07 12:51 38.02728 58.28172 3589 ft 207 kts 301°
2026-05-07 12:51 38.03586 58.26720 4063 ft 215 kts 320°
2026-05-07 12:52 38.04874 58.25772 4680 ft 216 kts 340°
2026-05-07 12:52 38.06394 58.25444 5106 ft 228 kts
2026-05-07 12:52 38.07965 58.25853 5695 ft 235 kts 21°
2026-05-07 12:52 38.09358 58.27019 6018 ft 252 kts 45°
2026-05-07 12:53 38.10302 58.28947 6517 ft 262 kts 72°
2026-05-07 12:53 38.10469 58.31237 6992 ft 265 kts 102°
2026-05-07 12:53 38.10040 58.33439 7584 ft 258 kts 108°
2026-05-07 12:53 38.09536 58.35734 7832 ft 275 kts 108°
2026-05-07 12:54 38.09027 58.38098 8321 ft 283 kts 108°
2026-05-07 12:54 38.08507 58.40543 8751 ft 292 kts 108°
2026-05-07 12:54 38.07972 58.43093 9211 ft 302 kts 108°
2026-05-07 12:54 38.07436 58.45677 9743 ft 307 kts 108°
2026-05-07 12:55 38.06888 58.48341 10288 ft 313 kts 109°
2026-05-07 12:55 38.06329 58.51060 10503 ft 332 kts 108°
2026-05-07 12:55 38.05727 58.53999 10661 ft 353 kts 108°
2026-05-07 12:55 38.05101 58.57074 10817 ft 373 kts 108°
2026-05-07 12:56 38.04434 58.60359 11056 ft 389 kts 108°
2026-05-07 12:56 38.03760 58.63696 11553 ft 398 kts 108°
2026-05-07 12:56 38.03065 58.67129 12160 ft 404 kts 108°
2026-05-07 12:56 38.02360 58.70616 12897 ft 406 kts 108°
2026-05-07 12:57 38.01661 58.74065 13655 ft 410 kts 108°
2026-05-07 12:57 38.00943 58.77593 14283 ft 414 kts 108°
2026-05-07 12:57 38.00211 58.81169 14889 ft 420 kts 108°
2026-05-07 12:57 37.99477 58.84755 15537 ft 425 kts 108°
2026-05-07 12:58 37.98726 58.88423 16190 ft 429 kts 108°
2026-05-07 12:58 37.97975 58.92086 16805 ft 434 kts 108°
2026-05-07 12:58 37.97207 58.95813 17409 ft 439 kts 108°
2026-05-07 12:58 37.96428 58.99598 18046 ft 444 kts 108°
2026-05-07 12:59 37.95648 59.03376 18620 ft 448 kts 108°
2026-05-07 12:59 37.94855 59.07222 19197 ft 451 kts 108°
2026-05-07 12:59 37.94062 59.11056 19780 ft 454 kts 108°
2026-05-07 12:59 37.93255 59.14951 20369 ft 457 kts 108°
2026-05-07 13:00 37.92440 59.18874 20946 ft 460 kts 108°
2026-05-07 13:00 37.91629 59.22774 21503 ft 464 kts 108°
2026-05-07 13:00 37.90798 59.26767 22049 ft 467 kts 108°
2026-05-07 13:00 37.89974 59.30717 22585 ft 470 kts 108°
2026-05-07 13:01 37.89126 59.34773 23132 ft 473 kts 108°
2026-05-07 13:01 37.88433 59.38839 23619 ft 479 kts 103°
2026-05-07 13:01 37.87924 59.43012 24051 ft 483 kts 101°
2026-05-07 13:01 37.87490 59.47271 24506 ft 486 kts 100°
2026-05-07 13:02 37.87075 59.51503 24943 ft 488 kts 100°
2026-05-07 13:02 37.86636 59.55810 25368 ft 491 kts 101°
2026-05-07 13:02 37.86177 59.60084 25781 ft 494 kts 101°
2026-05-07 13:02 37.85695 59.64376 26193 ft 497 kts 101°
2026-05-07 13:03 37.85191 59.68729 26590 ft 499 kts 101°
2026-05-07 13:03 37.84681 59.73066 26984 ft 502 kts 101°
2026-05-07 13:03 37.84164 59.77433 27358 ft 505 kts 101°
2026-05-07 13:03 37.83641 59.81844 27728 ft 508 kts 101°
2026-05-07 13:04 37.83112 59.86295 28095 ft 511 kts 101°
2026-05-07 13:04 37.82579 59.90777 28434 ft 513 kts 101°
2026-05-07 13:04 37.82051 59.95214 28768 ft 516 kts 101°
2026-05-07 13:04 37.81511 59.99735 29069 ft 519 kts 101°
2026-05-07 13:05 37.80975 60.04209 29403 ft 520 kts 101°
2026-05-07 13:05 37.80431 60.08747 29856 ft 519 kts 101°
2026-05-07 13:05 37.79885 60.13277 30277 ft 518 kts 101°
2026-05-07 13:05 37.79346 60.17738 30554 ft 519 kts 101°
2026-05-07 13:06 37.78796 60.22262 30813 ft 521 kts 101°
2026-05-07 13:06 37.78239 60.26833 31093 ft 523 kts 101°
2026-05-07 13:06 37.77683 60.31382 31375 ft 523 kts 101°
2026-05-07 13:06 37.77128 60.35910 31651 ft 524 kts 101°
2026-05-07 13:07 37.76566 60.40490 31925 ft 526 kts 101°
2026-05-07 13:07 37.76010 60.45015 32185 ft 527 kts 101°
2026-05-07 13:07 37.75441 60.49618 32452 ft 528 kts 101°
2026-05-07 13:07 37.74876 60.54179 32705 ft 529 kts 101°
2026-05-07 13:08 37.74378 60.58813 32877 ft 532 kts 99°
2026-05-07 13:08 37.73958 60.63470 32919 ft 535 kts 98°
2026-05-07 13:08 37.73194 60.72805 32929 ft 532 kts 98°
2026-05-07 13:09 37.72406 60.82073 32940 ft 528 kts 98°
2026-05-07 13:09 37.71577 60.91240 32942 ft 528 kts 98°
2026-05-07 13:10 37.70722 61.00484 32945 ft 528 kts 98°
2026-05-07 13:10 37.69864 61.09703 32937 ft 530 kts 98°
2026-05-07 13:11 37.68998 61.18959 32934 ft 531 kts 98°
2026-05-07 13:11 37.68125 61.28222 32934 ft 532 kts 98°
2026-05-07 13:12 37.67245 61.37487 32928 ft 532 kts 98°
2026-05-07 13:12 37.66362 61.46703 32925 ft 532 kts 98°
2026-05-07 13:13 37.65463 61.56004 32918 ft 532 kts 98°
2026-05-07 13:13 37.64564 61.65240 32916 ft 531 kts 98°
2026-05-07 13:14 37.63660 61.74466 32912 ft 530 kts 98°
2026-05-07 13:14 37.62659 61.83671 32905 ft 528 kts 104°
2026-05-07 13:15 37.60143 61.92287 32914 ft 521 kts 121°
2026-05-07 13:15 37.56143 61.99813 32914 ft 514 kts 131°
2026-05-07 13:16 37.51810 62.06976 32911 ft 516 kts 131°
2026-05-07 13:16 37.47506 62.14158 32915 ft 517 kts 130°
2026-05-07 13:17 37.43205 62.21423 32908 ft 519 kts 130°
2026-05-07 13:17 37.38894 62.28725 32908 ft 520 kts 130°
2026-05-07 13:18 37.34564 62.36043 32902 ft 520 kts 130°
2026-05-07 13:18 37.30245 62.43319 32921 ft 520 kts 130°
2026-05-07 13:19 37.25906 62.50608 32890 ft 520 kts 130°
2026-05-07 13:19 37.21579 62.57861 32897 ft 519 kts 130°
2026-05-07 13:20 37.17241 62.65117 32887 ft 519 kts 130°
2026-05-07 13:20 37.12908 62.72349 32903 ft 518 kts 130°
2026-05-07 13:21 37.08600 62.79525 32901 ft 518 kts 130°
2026-05-07 13:21 37.04241 62.86770 32897 ft 518 kts 130°
2026-05-07 13:22 36.99910 62.93951 32894 ft 519 kts 130°
2026-05-07 13:22 36.95577 63.01123 32902 ft 519 kts 130°
2026-05-07 13:23 36.91202 63.08349 32902 ft 520 kts 130°
2026-05-07 13:23 36.86834 63.15545 32899 ft 521 kts 130°
2026-05-07 13:24 36.82442 63.22767 32909 ft 522 kts 130°
2026-05-07 13:24 36.78044 63.29983 32901 ft 523 kts 130°
2026-05-07 13:25 36.73639 63.37196 32904 ft 523 kts 130°
2026-05-07 13:25 36.69225 63.44408 32907 ft 523 kts 130°
2026-05-07 13:26 36.64804 63.51615 32904 ft 524 kts 130°
2026-05-07 13:26 36.60364 63.58838 32904 ft 524 kts 130°
2026-05-07 13:27 36.55947 63.66011 32910 ft 525 kts 129°
2026-05-07 13:27 36.51487 63.73235 32909 ft 525 kts 129°
2026-05-07 13:28 36.47027 63.80446 32906 ft 526 kts 129°
2026-05-07 13:28 36.42569 63.87638 32903 ft 526 kts 129°
2026-05-07 13:29 36.38110 63.94816 32900 ft 526 kts 129°
2026-05-07 13:29 36.33639 64.02001 32896 ft 526 kts 129°
2026-05-07 13:30 36.29155 64.09190 32891 ft 526 kts 129°
2026-05-07 13:30 36.24696 64.16327 32882 ft 526 kts 129°
2026-05-07 13:31 36.20200 64.23511 32879 ft 526 kts 129°
2026-05-07 13:31 36.16441 64.29504 32883 ft 526 kts 129°
2026-05-07 13:32 36.12061 64.36749 32872 ft 527 kts 127°
2026-05-07 13:32 36.07764 64.44048 32879 ft 526 kts 127°
2026-05-07 13:33 36.03458 64.51335 32887 ft 526 kts 127°
2026-05-07 13:33 35.99110 64.58635 32893 ft 526 kts 127°
2026-05-07 13:34 35.92606 64.69498 32922 ft 525 kts 127°
2026-05-07 13:35 35.88253 64.76749 32938 ft 524 kts 127°
2026-05-07 13:35 35.83934 64.83932 32946 ft 524 kts 127°
2026-05-07 13:36 35.79579 64.91160 32983 ft 523 kts 127°
2026-05-07 13:36 35.75244 64.98341 32996 ft 523 kts 127°
2026-05-07 13:37 35.70898 65.05523 33014 ft 523 kts 127°
2026-05-07 13:37 35.66553 65.12690 33036 ft 522 kts 127°
2026-05-07 13:38 35.62214 65.19832 33052 ft 522 kts 127°
2026-05-07 13:38 35.57853 65.26993 33074 ft 522 kts 128°
2026-05-07 13:39 35.53491 65.34142 33088 ft 522 kts 128°
2026-05-07 13:39 35.49148 65.41250 33094 ft 522 kts 128°
2026-05-07 13:40 35.44785 65.48373 33111 ft 521 kts 128°
2026-05-07 13:40 35.40452 65.55433 33124 ft 521 kts 128°
2026-05-07 13:41 35.36077 65.62547 33129 ft 522 kts 128°
2026-05-07 13:41 35.31708 65.69636 33139 ft 522 kts 128°
2026-05-07 13:42 35.27335 65.76719 33140 ft 522 kts 128°
2026-05-07 13:42 35.22955 65.83796 33158 ft 522 kts 128°
2026-05-07 13:43 35.18562 65.90882 33151 ft 522 kts 128°
2026-05-07 13:43 35.14166 65.97963 33153 ft 522 kts 128°
2026-05-07 13:44 35.09784 66.05003 33150 ft 522 kts 128°
2026-05-07 13:44 35.05367 66.12085 33154 ft 522 kts 128°
2026-05-07 13:45 35.00980 66.19110 33131 ft 521 kts 128°
2026-05-07 13:45 34.96585 66.26133 33146 ft 522 kts 128°
2026-05-07 13:46 34.92133 66.33170 33143 ft 524 kts 129°
2026-05-07 13:46 34.87670 66.40176 33136 ft 525 kts 129°
2026-05-07 13:47 34.83180 66.47229 33149 ft 525 kts 129°
2026-05-07 13:47 34.78708 66.54250 33158 ft 526 kts 129°
2026-05-07 13:48 34.74220 66.61284 33123 ft 526 kts 129°
2026-05-07 13:48 34.69736 66.68295 33121 ft 524 kts 129°
2026-05-07 13:49 34.65290 66.75233 33129 ft 524 kts 129°
2026-05-07 13:49 34.60798 66.82232 33114 ft 524 kts 129°
2026-05-07 13:50 34.56320 66.89200 33104 ft 523 kts 129°
2026-05-07 13:50 34.51844 66.96134 33114 ft 523 kts 129°
2026-05-07 13:51 34.49776 66.99318 33084 ft 523 kts 129°
2026-05-07 13:52 34.47488 67.02844 33089 ft 523 kts 129°
2026-05-07 13:52 34.44389 67.07621 33100 ft 523 kts 129°
2026-05-07 13:53 34.40190 67.14078 33104 ft 523 kts 129°
2026-05-07 13:53 34.35703 67.20959 33094 ft 524 kts 129°
2026-05-07 13:54 34.31165 67.27907 33097 ft 524 kts 129°
2026-05-07 13:54 34.26635 67.34829 33061 ft 524 kts 129°
2026-05-07 13:55 34.22123 67.41713 33091 ft 524 kts 129°
2026-05-07 13:55 34.17581 67.48629 33061 ft 525 kts 129°
2026-05-07 13:56 34.13039 67.55532 33058 ft 526 kts 129°
2026-05-07 13:56 34.08494 67.62427 33084 ft 526 kts 129°
2026-05-07 13:57 34.03935 67.69328 33058 ft 527 kts 129°
2026-05-07 13:57 33.99347 67.76266 33069 ft 526 kts 129°
2026-05-07 13:58 33.94771 67.83128 33039 ft 526 kts 129°
2026-05-07 13:58 33.90161 67.89951 33053 ft 526 kts 130°
2026-05-07 13:59 33.85553 67.96759 33028 ft 526 kts 129°
2026-05-07 13:59 33.80929 68.03593 32993 ft 526 kts 129°
2026-05-07 14:00 33.76301 68.10427 32989 ft 526 kts 129°
2026-05-07 14:00 33.71681 68.17234 32966 ft 526 kts 129°
2026-05-07 14:01 33.67072 68.24010 32960 ft 526 kts 129°
2026-05-07 14:01 33.62410 68.30854 32930 ft 527 kts 129°
2026-05-07 14:02 33.57787 68.37629 32891 ft 528 kts 129°
2026-05-07 14:02 33.53133 68.44405 32878 ft 528 kts 130°
2026-05-07 14:03 33.48359 68.51123 32866 ft 528 kts 131°
2026-05-07 14:03 33.43581 68.57792 32849 ft 529 kts 131°
2026-05-07 14:04 33.38796 68.64500 32851 ft 529 kts 131°
2026-05-07 14:04 33.34018 68.71201 32845 ft 529 kts 131°
2026-05-07 14:05 33.29253 68.77869 32851 ft 528 kts 131°
2026-05-07 14:05 33.24635 68.84684 32854 ft 528 kts 128°
2026-05-07 14:06 33.20191 68.91638 32879 ft 528 kts 127°
2026-05-07 14:06 33.15729 68.98617 32894 ft 528 kts 127°
2026-05-07 14:07 33.11246 69.05566 32905 ft 528 kts 127°
2026-05-07 14:07 33.06770 69.12470 32918 ft 528 kts 127°
2026-05-07 14:08 33.02280 69.19385 32935 ft 527 kts 127°
2026-05-07 14:08 32.97783 69.26303 32942 ft 526 kts 127°
2026-05-07 14:09 32.93307 69.33175 32933 ft 526 kts 127°
2026-05-07 14:09 32.88823 69.40049 32935 ft 526 kts 128°
2026-05-07 14:10 32.84337 69.46904 32937 ft 526 kts 128°
2026-05-07 14:10 32.79818 69.53772 32936 ft 526 kts 128°
2026-05-07 14:11 32.75307 69.60615 32937 ft 527 kts 128°
2026-05-07 14:11 32.70791 69.67460 32923 ft 527 kts 128°
2026-05-07 14:12 32.66266 69.74309 32917 ft 528 kts 128°
2026-05-07 14:12 32.61729 69.81160 32908 ft 529 kts 128°
2026-05-07 14:13 32.57178 69.88023 32898 ft 529 kts 128°
2026-05-07 14:13 32.52644 69.94844 32878 ft 529 kts 128°
2026-05-07 14:14 32.48084 70.01695 32864 ft 529 kts 128°
2026-05-07 14:14 32.43506 70.08561 32836 ft 530 kts 127°
2026-05-07 14:15 32.38932 70.15410 32814 ft 531 kts 128°
2026-05-07 14:15 32.34382 70.22268 32791 ft 531 kts 127°
2026-05-07 14:16 32.29901 70.29217 32775 ft 531 kts 126°
2026-05-07 14:16 32.25454 70.36128 32760 ft 531 kts 126°
2026-05-07 14:17 32.21700 70.41926 32877 ft 534 kts 126°
2026-05-07 14:17 32.18693 70.46552 33315 ft 532 kts 126°
2026-05-07 14:17 32.17194 70.48855 33545 ft 531 kts 126°
2026-05-07 14:17 32.14946 70.52305 33840 ft 531 kts 126°
2026-05-07 14:18 32.12675 70.55790 34030 ft 532 kts 127°
2026-05-07 14:18 32.10425 70.59239 34226 ft 533 kts 127°
2026-05-07 14:18 32.08172 70.62692 34401 ft 534 kts 127°
2026-05-07 14:18 32.05872 70.66213 34576 ft 536 kts 127°
2026-05-07 14:19 32.03607 70.69677 34634 ft 538 kts 127°
2026-05-07 14:19 31.99016 70.76689 34732 ft 543 kts 127°
2026-05-07 14:20 31.94377 70.83763 34736 ft 549 kts 127°
2026-05-07 14:20 31.89952 70.91135 34739 ft 552 kts 118°
2026-05-07 14:21 31.86371 70.99133 34743 ft 554 kts 115°
2026-05-07 14:21 31.82848 71.07175 34744 ft 555 kts 115°
2026-05-07 14:22 31.79234 71.15264 34738 ft 556 kts 116°
2026-05-07 14:22 31.75635 71.23228 34734 ft 553 kts 116°
2026-05-07 14:23 31.72025 71.31198 34735 ft 551 kts 116°
2026-05-07 14:23 31.68438 71.39116 34736 ft 548 kts 116°
2026-05-07 14:24 31.64865 71.46990 34738 ft 546 kts 116°
2026-05-07 14:24 31.61293 71.54846 34749 ft 546 kts 116°
2026-05-07 14:25 31.57713 71.62698 34743 ft 546 kts 116°
2026-05-07 14:25 31.54121 71.70538 34752 ft 547 kts 116°
2026-05-07 14:26 31.50512 71.78398 34755 ft 548 kts 116°
2026-05-07 14:26 31.46896 71.86262 34757 ft 549 kts 116°
2026-05-07 14:27 31.43246 71.94185 34759 ft 550 kts 116°
2026-05-07 14:27 31.39614 72.02054 34758 ft 550 kts 116°
2026-05-07 14:28 31.35996 72.09875 34762 ft 550 kts 116°
2026-05-07 14:28 31.32329 72.17788 34764 ft 550 kts 116°
2026-05-07 14:29 31.28861 72.25689 34759 ft 545 kts 107°
2026-05-07 14:29 31.27375 72.34243 34776 ft 534 kts 88°
2026-05-07 14:30 31.27976 72.42772 34787 ft 524 kts 76°
2026-05-07 14:30 31.29046 72.51177 34779 ft 525 kts 77°
2026-05-07 14:31 31.30045 72.59653 34783 ft 527 kts 77°
2026-05-07 14:31 31.30985 72.68159 34788 ft 528 kts 78°
2026-05-07 14:32 31.31911 72.76648 34782 ft 528 kts 77°
2026-05-07 14:32 31.32842 72.85174 34781 ft 528 kts 78°
2026-05-07 14:33 31.33767 72.93673 34772 ft 527 kts 78°
2026-05-07 14:33 31.34686 73.02162 34776 ft 525 kts 78°
2026-05-07 14:34 31.35597 73.10614 34773 ft 524 kts 78°
2026-05-07 14:34 31.36505 73.19091 34780 ft 523 kts 78°
2026-05-07 14:35 31.37404 73.27521 34781 ft 522 kts 78°
2026-05-07 14:35 31.38295 73.35938 34795 ft 522 kts 78°
2026-05-07 14:36 31.39177 73.44327 34796 ft 521 kts 78°
2026-05-07 14:36 31.40056 73.52745 34798 ft 522 kts 78°
2026-05-07 14:37 31.40931 73.61172 34798 ft 522 kts 78°
2026-05-07 14:37 31.42232 73.73807 34795 ft 522 kts 78°
2026-05-07 14:38 31.43080 73.82235 34801 ft 521 kts 78°
2026-05-07 14:38 31.43919 73.90675 34798 ft 520 kts 78°
2026-05-07 14:39 31.44543 73.99126 34799 ft 524 kts 86°
2026-05-07 14:39 31.43957 74.07663 34808 ft 529 kts 97°
2026-05-07 14:40 31.42370 74.16080 34810 ft 530 kts 99°
2026-05-07 14:40 31.40706 74.24493 34804 ft 529 kts 99°
2026-05-07 14:41 31.39101 74.32882 34802 ft 529 kts 99°
2026-05-07 14:41 31.37520 74.41259 34805 ft 528 kts 99°
2026-05-07 14:42 31.35927 74.49654 34807 ft 528 kts 99°
2026-05-07 14:42 31.34285 74.58028 34805 ft 528 kts 102°
2026-05-07 14:43 31.32959 74.63545 34810 ft 529 kts 103°
2026-05-07 14:43 31.30175 74.74532 34814 ft 528 kts 104°
2026-05-07 14:44 31.28100 74.82765 34817 ft 528 kts 104°
2026-05-07 14:44 31.26049 74.90977 34817 ft 528 kts 104°
2026-05-07 14:45 31.23998 74.99183 34819 ft 527 kts 104°
2026-05-07 14:45 31.21937 75.07393 34818 ft 527 kts 104°
2026-05-07 14:46 31.19863 75.15629 34826 ft 526 kts 104°
2026-05-07 14:46 31.17791 75.23829 34829 ft 526 kts 104°
2026-05-07 14:47 31.15722 75.31997 34830 ft 525 kts 104°
2026-05-07 14:47 31.13660 75.40115 34838 ft 525 kts 104°
2026-05-07 14:48 31.11552 75.48323 34836 ft 525 kts 106°
2026-05-07 14:48 31.08991 75.56305 34847 ft 526 kts 109°
2026-05-07 14:49 31.06300 75.64240 34845 ft 527 kts 109°
2026-05-07 14:49 31.03613 75.72203 34845 ft 527 kts 109°
2026-05-07 14:50 31.00956 75.80143 34852 ft 528 kts 109°
2026-05-07 14:50 30.98291 75.88113 34851 ft 528 kts 109°
2026-05-07 14:51 30.95617 75.96084 34851 ft 528 kts 109°
2026-05-07 14:51 30.92937 76.04049 34857 ft 528 kts 109°
2026-05-07 14:52 30.90253 76.12007 34858 ft 527 kts 109°
2026-05-07 14:52 30.87569 76.19946 34862 ft 527 kts 109°
2026-05-07 14:53 30.84882 76.27875 34863 ft 527 kts 109°
2026-05-07 14:53 30.82196 76.35781 34873 ft 526 kts 110°
2026-05-07 14:54 30.79499 76.43703 34875 ft 526 kts 110°
2026-05-07 14:54 30.76809 76.51589 34886 ft 526 kts 110°
2026-05-07 14:55 30.74114 76.59469 34883 ft 525 kts 110°
2026-05-07 14:55 30.71398 76.67393 34884 ft 525 kts 110°
2026-05-07 14:56 30.68530 76.75213 34885 ft 526 kts 116°
2026-05-07 14:56 30.64646 76.82398 34884 ft 527 kts 126°
2026-05-07 14:57 30.60156 76.89151 34886 ft 527 kts 127°
2026-05-07 14:57 30.55720 76.95856 34914 ft 526 kts 126°
2026-05-07 14:58 30.51276 77.02661 34904 ft 526 kts 126°
2026-05-07 14:58 30.46879 77.09400 34906 ft 525 kts 126°
2026-05-07 14:59 30.42404 77.16051 34906 ft 525 kts 132°
2026-05-07 14:59 30.36892 77.21550 34915 ft 524 kts 146°
2026-05-07 15:00 30.30499 77.25602 34912 ft 522 kts 155°
2026-05-07 15:00 30.23946 77.29287 34901 ft 523 kts 155°
2026-05-07 15:01 30.17466 77.33010 34897 ft 523 kts 154°
2026-05-07 15:01 30.10964 77.36797 34896 ft 523 kts 154°
2026-05-07 15:02 30.04453 77.40584 34890 ft 523 kts 154°
2026-05-07 15:02 29.98076 77.44571 34893 ft 524 kts 148°
2026-05-07 15:03 29.92227 77.49644 34900 ft 524 kts 142°
2026-05-07 15:03 29.86509 77.54882 34889 ft 524 kts 142°
2026-05-07 15:04 29.80798 77.60054 34895 ft 525 kts 142°
2026-05-07 15:04 29.75026 77.65229 34887 ft 525 kts 143°
2026-05-07 15:05 29.69262 77.70377 34893 ft 525 kts 143°
2026-05-07 15:05 29.64441 77.74677 34888 ft 525 kts 143°
2026-05-07 15:06 29.58684 77.79810 34889 ft 526 kts 143°
2026-05-07 15:06 29.52889 77.84970 34892 ft 526 kts 143°
2026-05-07 15:07 29.47107 77.90111 34892 ft 527 kts 143°
2026-05-07 15:07 29.41327 77.95241 34898 ft 527 kts 143°
2026-05-07 15:08 29.35525 78.00385 34898 ft 527 kts 143°
2026-05-07 15:08 29.29734 78.05511 34898 ft 528 kts 143°
2026-05-07 15:09 29.23910 78.10659 34897 ft 528 kts 143°
2026-05-07 15:09 29.18087 78.15797 34899 ft 528 kts 144°
2026-05-07 15:10 29.12259 78.20934 34898 ft 529 kts 144°
2026-05-07 15:10 29.06418 78.26072 34897 ft 529 kts 144°
2026-05-07 15:11 29.00606 78.31179 34899 ft 529 kts 144°
2026-05-07 15:11 28.94783 78.36288 34896 ft 529 kts 144°
2026-05-07 15:12 28.88952 78.41397 34898 ft 529 kts 144°
2026-05-07 15:12 28.83079 78.46534 34902 ft 529 kts 144°
2026-05-07 15:13 28.77273 78.51606 34895 ft 529 kts 144°
2026-05-07 15:13 28.71421 78.56712 34895 ft 529 kts 144°
2026-05-07 15:14 28.65564 78.61813 34894 ft 529 kts 144°
2026-05-07 15:14 28.59713 78.66903 34891 ft 529 kts 144°
2026-05-07 15:15 28.53868 78.71981 34895 ft 530 kts 144°
2026-05-07 15:15 28.47999 78.77080 34888 ft 530 kts 143°
2026-05-07 15:16 28.42562 78.82738 34895 ft 531 kts 135°
2026-05-07 15:16 28.37393 78.88731 34898 ft 532 kts 135°
2026-05-07 15:17 28.32219 78.94703 34891 ft 533 kts 136°
2026-05-07 15:17 28.26992 79.00665 34886 ft 533 kts 136°
2026-05-07 15:18 28.21739 79.06625 34886 ft 534 kts 136°
2026-05-07 15:18 28.16493 79.12568 34882 ft 534 kts 136°
2026-05-07 15:19 28.11236 79.18521 34882 ft 534 kts 136°
2026-05-07 15:19 28.05956 79.24492 34879 ft 535 kts 136°
2026-05-07 15:20 28.00689 79.30440 34874 ft 535 kts 136°
2026-05-07 15:20 27.95413 79.36389 34873 ft 536 kts 136°
2026-05-07 15:21 27.90134 79.42333 34875 ft 537 kts 137°
2026-05-07 15:21 27.84828 79.48299 34869 ft 537 kts 137°
2026-05-07 15:22 27.79512 79.54268 34868 ft 538 kts 137°
2026-05-07 15:22 27.74218 79.60204 34865 ft 538 kts 137°
2026-05-07 15:23 27.68930 79.66186 34863 ft 538 kts 134°
2026-05-07 15:23 27.64055 79.72622 34865 ft 539 kts 131°
2026-05-07 15:24 27.59270 79.79124 34862 ft 539 kts 131°
2026-05-07 15:24 27.54468 79.85602 34864 ft 539 kts 132°
2026-05-07 15:25 27.49622 79.92084 34855 ft 539 kts 132°
2026-05-07 15:25 27.44794 79.98516 34855 ft 539 kts 132°
2026-05-07 15:26 27.39943 80.04973 34853 ft 539 kts 132°
2026-05-07 15:26 27.35123 80.11384 34868 ft 539 kts 132°
2026-05-07 15:27 27.30256 80.17848 34863 ft 539 kts 133°
2026-05-07 15:27 27.25410 80.24274 34844 ft 539 kts 133°
2026-05-07 15:28 27.20566 80.30688 34853 ft 539 kts 133°
2026-05-07 15:28 27.15719 80.37096 34849 ft 539 kts 133°
2026-05-07 15:29 27.10865 80.43505 34854 ft 539 kts 133°
2026-05-07 15:29 27.05995 80.49926 34849 ft 539 kts 133°
2026-05-07 15:30 27.01140 80.56317 34852 ft 539 kts 133°
2026-05-07 15:30 26.96278 80.62708 34850 ft 538 kts 133°
2026-05-07 15:31 26.91441 80.69057 34849 ft 538 kts 133°
2026-05-07 15:31 26.86585 80.75422 34851 ft 537 kts 133°
2026-05-07 15:32 26.81710 80.81804 34853 ft 537 kts 134°
2026-05-07 15:32 26.76869 80.88133 34855 ft 537 kts 134°
2026-05-07 15:33 26.72298 80.94782 34864 ft 539 kts 129°
2026-05-07 15:33 26.67915 81.01586 34856 ft 540 kts 129°
2026-05-07 15:34 26.63532 81.08378 34856 ft 540 kts 129°
2026-05-07 15:34 26.59110 81.15171 34851 ft 541 kts 129°
2026-05-07 15:35 26.54669 81.21960 34845 ft 542 kts 129°
2026-05-07 15:35 26.50227 81.28737 34850 ft 542 kts 129°
2026-05-07 15:36 26.45769 81.35535 34847 ft 542 kts 130°
2026-05-07 15:36 26.41292 81.42352 34851 ft 543 kts 130°
2026-05-07 15:37 26.36839 81.49123 34844 ft 543 kts 130°
2026-05-07 15:37 26.32376 81.55898 34846 ft 542 kts 130°
2026-05-07 15:38 26.27914 81.62663 34841 ft 542 kts 130°
2026-05-07 15:38 26.23451 81.69417 34844 ft 542 kts 130°
2026-05-07 15:39 26.18961 81.76204 34835 ft 542 kts 130°
2026-05-07 15:39 26.14498 81.82939 34846 ft 542 kts 130°
2026-05-07 15:40 26.10022 81.89685 34844 ft 542 kts 130°
2026-05-07 15:40 26.05532 81.96440 34846 ft 544 kts 130°
2026-05-07 15:41 26.01031 82.03203 34843 ft 546 kts 130°
2026-05-07 15:41 25.96503 82.09996 34843 ft 548 kts 130°
2026-05-07 15:42 25.91963 82.16797 34840 ft 550 kts 130°
2026-05-07 15:42 25.87402 82.23621 34837 ft 551 kts 131°
2026-05-07 15:43 25.82831 82.30451 34837 ft 552 kts 131°
2026-05-07 15:43 25.78246 82.37290 34834 ft 553 kts 131°
2026-05-07 15:44 25.73642 82.44148 34832 ft 553 kts 131°
2026-05-07 15:44 25.69051 82.50976 34834 ft 553 kts 131°
2026-05-07 15:45 25.64429 82.57840 34833 ft 553 kts 131°
2026-05-07 15:45 25.59852 82.64628 34842 ft 552 kts 131°
2026-05-07 15:46 25.58529 82.66589 34843 ft 552 kts 131°
2026-05-07 15:47 25.55131 82.71620 34848 ft 552 kts 132°
2026-05-07 15:47 25.50541 82.78409 34849 ft 551 kts 132°
2026-05-07 15:48 25.46191 82.85397 34853 ft 556 kts 124°
2026-05-07 15:48 25.42857 82.93148 34852 ft 563 kts 114°
2026-05-07 15:49 25.40182 83.01341 34850 ft 564 kts 114°
2026-05-07 15:49 25.37537 83.09486 34848 ft 565 kts 114°
2026-05-07 15:50 25.34828 83.17646 34842 ft 566 kts 114°
2026-05-07 15:50 25.32551 83.24417 34840 ft 566 kts 115°
2026-05-07 15:51 25.29780 83.32628 34842 ft 567 kts 115°
2026-05-07 15:51 25.27032 83.40769 34849 ft 567 kts 115°
2026-05-07 15:52 25.24280 83.48914 34849 ft 568 kts 115°
2026-05-07 15:52 25.21505 83.57113 34851 ft 568 kts 115°
2026-05-07 15:53 25.18746 83.65246 34852 ft 569 kts 115°
2026-05-07 15:53 25.15955 83.73454 34857 ft 569 kts 115°
2026-05-07 15:54 25.13180 83.81598 34862 ft 568 kts 115°
2026-05-07 15:54 25.10385 83.89787 34863 ft 568 kts 115°
2026-05-07 15:55 25.07609 83.97900 34866 ft 568 kts 115°
2026-05-07 15:55 25.04811 84.06063 34871 ft 568 kts 116°
2026-05-07 15:56 25.02018 84.14192 34874 ft 568 kts 116°
2026-05-07 15:56 24.99224 84.22311 34876 ft 568 kts 116°
2026-05-07 15:57 24.96405 84.30483 34878 ft 569 kts 116°
2026-05-07 15:57 24.93599 84.38604 34884 ft 569 kts 116°
2026-05-07 15:58 24.90775 84.46757 34893 ft 569 kts 116°
2026-05-07 15:58 24.87952 84.54892 34895 ft 570 kts 116°
2026-05-07 15:59 24.85111 84.63064 34882 ft 570 kts 116°
2026-05-07 15:59 24.82263 84.71239 34893 ft 570 kts 116°
2026-05-07 16:00 24.79431 84.79355 34887 ft 570 kts 116°
2026-05-07 16:00 24.76589 84.87482 34883 ft 570 kts 116°
2026-05-07 16:01 24.73411 84.95422 34887 ft 562 kts 124°
2026-05-07 16:01 24.69244 85.02584 34887 ft 554 kts 131°
2026-05-07 16:02 24.64870 85.09517 34885 ft 554 kts 131°
2026-05-07 16:02 24.60505 85.16510 34904 ft 554 kts 131°
2026-05-07 16:03 24.56180 85.23508 34928 ft 554 kts 131°
2026-05-07 16:03 24.51874 85.30485 34933 ft 554 kts 131°
2026-05-07 16:04 24.47531 85.37507 34928 ft 554 kts 131°
2026-05-07 16:04 24.43192 85.44503 34938 ft 554 kts 131°
2026-05-07 16:05 24.38863 85.51473 34933 ft 553 kts 131°
2026-05-07 16:05 24.34517 85.58460 34941 ft 553 kts 131°
2026-05-07 16:06 24.30193 85.65401 34938 ft 553 kts 131°
2026-05-07 16:06 24.25847 85.72371 34943 ft 553 kts 131°
2026-05-07 16:07 24.21527 85.79286 34939 ft 552 kts 131°
2026-05-07 16:07 24.17172 85.86249 34943 ft 552 kts 131°
2026-05-07 16:08 24.12850 85.93150 34944 ft 552 kts 131°
2026-05-07 16:08 24.08501 86.00084 34942 ft 551 kts 131°
2026-05-07 16:09 24.04149 86.07014 34940 ft 551 kts 131°
2026-05-07 16:09 23.99829 86.13883 34935 ft 551 kts 131°
2026-05-07 16:10 23.95486 86.20780 34956 ft 549 kts 131°
2026-05-07 16:10 23.91144 86.27663 34958 ft 549 kts 131°
2026-05-07 16:11 23.86830 86.34495 34959 ft 549 kts 131°
2026-05-07 16:11 23.82479 86.41377 34950 ft 550 kts 131°
2026-05-07 16:12 23.78314 86.48435 34950 ft 553 kts 128°
2026-05-07 16:12 23.74362 86.55620 34947 ft 554 kts 127°
2026-05-07 16:13 23.70379 86.62858 34944 ft 555 kts 127°
2026-05-07 16:13 23.66405 86.70007 34944 ft 555 kts 128°
2026-05-07 16:14 23.62382 86.77207 34948 ft 555 kts 128°
2026-05-07 16:14 23.58360 86.84402 34940 ft 555 kts 127°
2026-05-07 16:15 23.54356 86.91556 34934 ft 555 kts 127°
2026-05-07 16:15 23.50331 86.98743 34931 ft 555 kts 127°
2026-05-07 16:16 23.46299 87.05933 34931 ft 555 kts 127°
2026-05-07 16:16 23.42301 87.13081 34931 ft 555 kts 127°
2026-05-07 16:17 23.38290 87.20256 34926 ft 555 kts 127°
2026-05-07 16:17 23.34268 87.27437 34925 ft 554 kts 127°
2026-05-07 16:18 23.30249 87.34600 34921 ft 554 kts 127°
2026-05-07 16:18 23.26228 87.41755 34928 ft 554 kts 127°
2026-05-07 16:19 23.22205 87.48904 34921 ft 553 kts 127°
2026-05-07 16:19 23.18211 87.55992 34922 ft 553 kts 127°
2026-05-07 16:20 23.14186 87.63124 34920 ft 553 kts 127°
2026-05-07 16:20 23.10152 87.70263 34913 ft 552 kts 127°
2026-05-07 16:21 23.06151 87.77333 34916 ft 551 kts 127°
2026-05-07 16:21 23.02122 87.84443 34920 ft 551 kts 127°
2026-05-07 16:22 22.98124 87.91490 34913 ft 550 kts 127°
2026-05-07 16:22 22.94110 87.98554 34919 ft 550 kts 127°
2026-05-07 16:23 22.90078 88.05640 34914 ft 549 kts 127°
2026-05-07 16:23 22.86069 88.12676 34919 ft 548 kts 127°
2026-05-07 16:24 22.82066 88.19692 34905 ft 548 kts 127°
2026-05-07 16:24 22.78056 88.26712 34910 ft 547 kts 127°
2026-05-07 16:25 22.74063 88.33692 34917 ft 546 kts 127°
2026-05-07 16:25 22.70058 88.40686 34903 ft 545 kts 127°
2026-05-07 16:26 22.65969 88.47551 34914 ft 541 kts 130°
2026-05-07 16:26 22.61619 88.54143 34910 ft 540 kts 131°
2026-05-07 16:27 22.57217 88.60734 34908 ft 539 kts 131°
2026-05-07 16:27 22.52836 88.67347 34912 ft 539 kts 130°
2026-05-07 16:28 22.48500 88.73918 34911 ft 539 kts 130°
2026-05-07 16:28 22.44128 88.80537 34909 ft 538 kts 130°
2026-05-07 16:29 22.39787 88.87094 34908 ft 538 kts 131°
2026-05-07 16:29 22.35440 88.93653 34906 ft 538 kts 131°
2026-05-07 16:30 22.31091 89.00207 34912 ft 537 kts 131°
2026-05-07 16:30 22.26805 89.06875 34912 ft 539 kts 129°
2026-05-07 16:31 22.22693 89.13624 34906 ft 539 kts 128°
2026-05-07 16:31 22.18585 89.20377 34907 ft 538 kts 128°
2026-05-07 16:32 22.14432 89.27125 34911 ft 538 kts 129°
2026-05-07 16:32 22.10265 89.33854 34912 ft 538 kts 129°
2026-05-07 16:33 22.06123 89.40530 34908 ft 538 kts 129°
2026-05-07 16:33 22.01964 89.47233 34910 ft 537 kts 129°
2026-05-07 16:34 21.97817 89.53909 34905 ft 537 kts 129°
2026-05-07 16:34 21.93650 89.60612 34906 ft 537 kts 129°
2026-05-07 16:35 21.89488 89.67295 34906 ft 537 kts 129°
2026-05-07 16:35 21.85331 89.73963 34905 ft 537 kts 129°
2026-05-07 16:36 21.81182 89.80611 34914 ft 537 kts 129°
2026-05-07 16:36 21.77020 89.87270 34905 ft 536 kts 129°
2026-05-07 16:37 21.72862 89.93916 34918 ft 536 kts 129°
2026-05-07 16:37 21.68690 90.00575 34913 ft 536 kts 129°
2026-05-07 16:38 21.64514 90.07233 34899 ft 536 kts 129°
2026-05-07 16:38 21.61039 90.12768 34899 ft 536 kts 129°
2026-05-07 16:39 21.56875 90.19392 34907 ft 536 kts 129°
2026-05-07 16:39 21.52687 90.26046 34909 ft 536 kts 129°
2026-05-07 16:40 21.48505 90.32683 34907 ft 536 kts 129°
2026-05-07 16:40 21.44339 90.39287 34907 ft 535 kts 129°
2026-05-07 16:41 21.40152 90.45917 34905 ft 535 kts 129°
2026-05-07 16:41 21.35995 90.52494 34909 ft 535 kts 129°
2026-05-07 16:42 21.31804 90.59115 34910 ft 534 kts 129°
2026-05-07 16:42 21.27631 90.65707 34909 ft 534 kts 129°
2026-05-07 16:43 21.23457 90.72297 34909 ft 534 kts 129°
2026-05-07 16:43 21.19278 90.78888 34909 ft 534 kts 129°
2026-05-07 16:44 21.15115 90.85445 34908 ft 534 kts 129°
2026-05-07 16:44 21.10927 90.92033 34907 ft 534 kts 129°
2026-05-07 16:45 21.06755 90.98588 34910 ft 534 kts 129°
2026-05-07 16:45 21.02549 91.05189 34908 ft 534 kts 129°
2026-05-07 16:46 20.98377 91.11730 34910 ft 534 kts 129°
2026-05-07 16:46 20.94186 91.18292 34905 ft 534 kts 129°
2026-05-07 16:47 20.90003 91.24834 34907 ft 534 kts 129°
2026-05-07 16:47 20.85800 91.31401 34904 ft 534 kts 129°
2026-05-07 16:48 20.81603 91.37951 34906 ft 533 kts 129°
2026-05-07 16:48 20.77411 91.44484 34903 ft 533 kts 129°
2026-05-07 16:49 20.73240 91.50979 34904 ft 533 kts 129°
2026-05-07 16:49 20.69018 91.57545 34903 ft 533 kts 129°
2026-05-07 16:50 20.64822 91.64062 34904 ft 533 kts 129°
2026-05-07 16:50 20.60635 91.70559 34905 ft 533 kts 129°
2026-05-07 16:51 20.56414 91.77101 34897 ft 533 kts 129°
2026-05-07 16:51 20.52227 91.83583 34898 ft 533 kts 129°
2026-05-07 16:52 20.48018 91.90092 34897 ft 533 kts 129°
2026-05-07 16:52 20.43811 91.96594 34899 ft 533 kts 129°
2026-05-07 16:53 20.39580 92.03098 34900 ft 532 kts 129°
2026-05-07 16:53 20.35341 92.09513 34900 ft 532 kts 129°
2026-05-07 16:54 20.31060 92.15969 34893 ft 532 kts 129°
2026-05-07 16:54 20.26799 92.22402 34898 ft 532 kts 129°
2026-05-07 16:55 20.22512 92.28876 34892 ft 532 kts 129°
2026-05-07 16:55 20.18266 92.35285 34891 ft 532 kts 129°
2026-05-07 16:56 20.13985 92.41739 34892 ft 532 kts 129°
2026-05-07 16:56 20.07581 92.51377 34890 ft 532 kts 129°
2026-05-07 16:57 20.03318 92.57784 34890 ft 532 kts 129°
2026-05-07 16:57 19.99025 92.64230 34883 ft 532 kts 129°
2026-05-07 16:58 19.94753 92.70638 34886 ft 532 kts 129°
2026-05-07 16:58 19.90491 92.77022 34884 ft 532 kts 129°
2026-05-07 16:59 19.86208 92.83432 34884 ft 531 kts 129°
2026-05-07 16:59 19.81928 92.89831 34885 ft 531 kts 129°
2026-05-07 17:00 19.77632 92.96247 34885 ft 531 kts 129°
2026-05-07 17:00 19.73377 93.02595 34882 ft 530 kts 129°
2026-05-07 17:01 19.69075 93.09005 34884 ft 530 kts 129°
2026-05-07 17:01 19.64812 93.15351 34885 ft 530 kts 129°
2026-05-07 17:02 19.60544 93.21698 34883 ft 529 kts 129°
2026-05-07 17:02 19.56246 93.28082 34884 ft 529 kts 129°
2026-05-07 17:03 19.51982 93.34409 34888 ft 529 kts 129°
2026-05-07 17:03 19.47720 93.40728 34882 ft 529 kts 129°
2026-05-07 17:04 19.43424 93.47089 34882 ft 528 kts 129°
2026-05-07 17:04 19.39179 93.53369 34888 ft 528 kts 129°
2026-05-07 17:05 19.34902 93.59689 34888 ft 528 kts 129°
2026-05-07 17:05 19.30626 93.66002 34887 ft 528 kts 129°
2026-05-07 17:06 19.26344 93.72318 34884 ft 527 kts 129°
2026-05-07 17:06 19.22071 93.78613 34889 ft 527 kts 129°
2026-05-07 17:07 19.17814 93.84878 34896 ft 526 kts 129°
2026-05-07 17:07 19.13536 93.91167 34893 ft 526 kts 129°
2026-05-07 17:08 19.09258 93.97450 34887 ft 526 kts 129°
2026-05-07 17:08 19.05002 94.03695 34895 ft 525 kts 129°
2026-05-07 17:09 19.00723 94.09967 34901 ft 525 kts 129°
2026-05-07 17:09 18.96427 94.16256 34902 ft 526 kts 129°
2026-05-07 17:10 18.92146 94.22520 34904 ft 526 kts 129°
2026-05-07 17:10 18.87881 94.28753 34922 ft 526 kts 129°
2026-05-07 17:11 18.83584 94.35026 34902 ft 527 kts 129°
2026-05-07 17:11 18.79288 94.41291 34905 ft 526 kts 129°
2026-05-07 17:12 18.75011 94.47523 34906 ft 526 kts 129°
2026-05-07 17:12 18.70702 94.53795 34918 ft 527 kts 129°
2026-05-07 17:13 18.66402 94.60050 34900 ft 526 kts 128°
2026-05-07 17:13 18.62097 94.66304 34919 ft 526 kts 129°
2026-05-07 17:14 18.57814 94.72523 34912 ft 527 kts 128°
2026-05-07 17:14 18.53585 94.78878 34912 ft 528 kts 127°
2026-05-07 17:15 18.49453 94.85242 34898 ft 527 kts 127°
2026-05-07 17:15 18.45298 94.91607 34895 ft 526 kts 127°
2026-05-07 17:16 18.41121 94.97961 34888 ft 526 kts 127°
2026-05-07 17:16 18.36977 95.04257 34879 ft 527 kts 127°
2026-05-07 17:17 18.32800 95.10601 34865 ft 527 kts 127°
2026-05-07 17:17 18.28606 95.16921 34860 ft 526 kts 128°
2026-05-07 17:18 18.24243 95.23094 34859 ft 525 kts 129°
2026-05-07 17:18 18.19847 95.29188 34856 ft 525 kts 129°
2026-05-07 17:19 18.15447 95.35332 34850 ft 525 kts 129°
2026-05-07 17:19 18.11086 95.41461 34853 ft 525 kts 129°
2026-05-07 17:20 18.06711 95.47616 34853 ft 524 kts 129°
2026-05-07 17:20 18.02341 95.53753 34851 ft 524 kts 129°
2026-05-07 17:21 17.97972 95.59881 34856 ft 523 kts 129°
2026-05-07 17:21 17.93628 95.65966 34857 ft 523 kts 129°
2026-05-07 17:22 17.89273 95.72063 34859 ft 523 kts 129°
2026-05-07 17:22 17.84910 95.78164 34860 ft 522 kts 129°
2026-05-07 17:23 17.80556 95.84247 34859 ft 522 kts 129°
2026-05-07 17:23 17.76188 95.90344 34861 ft 521 kts 129°
2026-05-07 17:24 17.71845 95.96401 34861 ft 521 kts 129°
2026-05-07 17:24 17.68223 96.01447 34863 ft 520 kts 128°
2026-05-07 17:25 17.63865 96.07517 34859 ft 520 kts 128°
2026-05-07 17:25 17.59511 96.13574 34865 ft 520 kts 128°
2026-05-07 17:26 17.55148 96.19637 34862 ft 519 kts 128°
2026-05-07 17:26 17.50820 96.25647 34861 ft 519 kts 128°
2026-05-07 17:27 17.46469 96.31683 34856 ft 519 kts 128°
2026-05-07 17:27 17.42116 96.37716 34860 ft 519 kts 128°
2026-05-07 17:28 17.37749 96.43766 34854 ft 519 kts 128°
2026-05-07 17:28 17.33421 96.49757 34856 ft 519 kts 128°
2026-05-07 17:29 17.29032 96.55787 34862 ft 519 kts 129°
2026-05-07 17:29 17.24606 96.61765 34859 ft 519 kts 129°
2026-05-07 17:30 17.24304 96.62171 34859 ft 519 kts 129°